MST,Max TemperatureF,Mean TemperatureF,Min TemperatureF,Max Dew PointF,MeanDew PointF,Min DewpointF,Max Humidity, Mean Humidity, Min Humidity, Max Sea Level PressureIn, Mean Sea Level PressureIn, Min Sea Level PressureIn, Max VisibilityMiles, Mean VisibilityMiles, Min VisibilityMiles, Max Wind SpeedMPH, Mean Wind SpeedMPH, Max Gust SpeedMPH,PrecipitationIn, CloudCover, Events, WindDirDegrees
2011-12-1,28,22,17,23,19,14,93,83,80,30.60,30.42,30.03,10,10,10,17,12,20,0.00,4,,239
2011-12-2,37,30,23,32,24,18,87,78,70,29.94,29.79,29.67,10,10,10,25,16,32,0.14,3,,249
2011-12-3,26,22,19,16,14,12,80,70,59,30.19,30.11,30.00,10,10,10,22,12,28,0.00,4,,272
2011-12-4,26,18,10,25,11,1,93,76,67,30.57,30.28,29.93,10,7,2,25,13,34,0.00,8,,337
2011-12-5,17,3,-11,9,-3,-18,100,80,65,30.57,30.43,30.21,10,10,10,12,7,,0.00,1,,212
2011-12-6,37,22,6,25,13,1,85,71,60,30.09,29.90,29.81,10,10,10,23,12,29,0.00,1,,210
2011-12-7,35,25,15,30,20,10,93,77,64,30.21,30.15,30.04,10,10,8,15,9,17,0.00,7,,310
2011-12-8,14,8,1,5,-2,-8,85,67,48,30.27,30.24,30.19,10,10,10,20,12,25,0.00,0,,285
2011-12-9,24,10,-5,16,2,-15,100,75,61,30.28,30.23,30.11,10,10,10,10,6,,0.00,3,,198
2011-12-10,42,30,19,27,21,14,93,71,49,30.07,29.95,29.79,10,10,10,20,10,23,0.00,0,,196
2011-12-11,35,25,15,25,19,10,93,78,60,30.13,29.94,29.81,10,10,10,10,6,,0.00,0,,326
2011-12-12,23,21,19,19,19,18,93,90,86,30.31,30.24,30.14,10,8,3,12,7,,0.00,8,,95
2011-12-13,23,21,19,19,18,16,93,88,80,30.20,30.06,29.91,10,10,9,14,10,,0.00,8,,183
2011-12-14,28,24,21,21,19,16,93,84,69,30.09,29.88,29.77,10,10,7,20,9,26,0.00,6,,266
2011-12-15,26,20,15,19,15,10,86,78,69,30.24,30.19,30.11,10,10,2,14,8,18,0.00,6,,216
2011-12-16,28,22,17,23,19,16,100,86,74,30.32,30.24,30.17,10,10,10,10,3,,0.00,5,,216
2011-12-17,39,28,17,28,22,14,100,80,65,30.17,30.10,29.92,10,10,10,15,7,,0.00,0,,205
2011-12-18,51,40,28,30,26,19,86,72,41,30.09,29.83,29.71,10,10,10,18,10,25,0.00,2,,254
2011-12-19,33,24,14,23,17,9,93,77,55,30.32,30.20,30.00,10,10,10,13,7,,0.00,0,,220
2011-12-20,44,32,19,28,24,14,86,71,49,29.96,29.73,29.63,10,10,10,16,11,17,0.00,2,,246
2011-12-21,37,27,17,30,24,10,93,79,64,30.28,29.96,29.71,10,10,2,16,12,20,0.00,6,,319
2011-12-22,32,20,8,21,15,7,100,77,64,30.34,30.21,30.05,10,10,10,17,11,22,0.00,2,,220
2011-12-23,41,32,23,21,19,16,74,58,45,30.12,30.05,29.99,10,10,10,22,15,29,0.00,1,,254
2011-12-24,42,33,24,27,22,16,80,57,46,30.30,30.16,30.11,10,10,10,28,13,33,0.00,1,,269
2011-12-25,37,29,21,27,23,18,93,76,60,30.32,30.10,29.70,10,10,10,20,10,21,0.00,0,,206
2011-12-26,42,33,24,30,24,19,86,61,42,30.07,29.82,29.66,10,10,10,37,17,48,0.00,2,,274
2011-12-27,41,30,21,25,22,18,93,73,49,30.11,29.91,29.77,10,10,7,14,6,20,0.00,5,,211
2011-12-28,55,38,21,34,26,19,93,70,41,29.81,29.66,29.50,10,10,10,21,10,33,0.00,2,,235
2011-12-29,50,37,24,37,29,21,100,81,46,29.64,29.50,29.40,10,10,8,33,8,43,0.02,4,,292
2011-12-30,39,32,24,34,28,23,100,78,56,29.80,29.64,29.44,10,10,10,23,11,32,0.02,4,,207
2011-12-31,42,35,28,28,20,9,70,55,42,30.27,29.87,29.46,10,10,10,29,17,41,0.00,2,,304